Location: Montreal
(45.5000°N, 73.5830°W)
Time: 12:17:05
(UTC-05:00)

OTV 5 (USA 277) - Visible Passes

Search period start: 11 December 2017 00:00
Search period end: 21 December 2017 00:00
Orbit: 404 x 417 km, 43.0° (Epoch: 07 September)

Date Brightness Start Highest point End Pass type
(mag) Time Alt. Az. Time Alt. Az. Time Alt. Az.
11 Dec ? 16:42:09 10° W 16:45:28 56° S 16:48:47 10° ESE visible
11 Dec ? 18:19:26 10° W 18:22:32 34° SSW 18:22:39 34° SSW visible
12 Dec ? 17:28:20 10° W 17:31:33 42° SSW 17:34:15 13° SE visible
12 Dec ? 19:06:19 10° WSW 19:07:02 13° WSW 19:07:02 13° WSW visible
13 Dec ? 18:14:52 10° WSW 18:17:27 21° SSW 18:18:47 17° S visible
14 Dec ? 17:23:37 10° W 17:26:31 27° SSW 17:29:26 10° SE visible
15 Dec ? 18:11:29 10° SW 18:12:15 11° SW 18:13:01 10° SSW visible
16 Dec ? 17:19:21 10° WSW 17:21:23 15° SSW 17:23:24 10° S visible
